Location: Bartshausen
(51.8454°N, 9.8167°E)
Time: 03:18:25
(UTC+00:00)

CZ-2C R/B - Pass Details

Date: 08 November 2025
Orbit: 664 x 773 km, 98.4° (Epoch: 15 December)

Event Time Altitude Azimuth Distance (km) Brightness Sun altitude
Rises 02:34:42 0° 23° (NNE) 3,178 6.2 -35.8°
Reaches altitude 10° 02:37:18 10° 35° (NE) 2,268 5.5 -35.4°
Maximum altitude 02:41:33 27° 93° (E) 1,421 4.3 -34.8°
Enters shadow 02:42:49 24° 118° (ESE) 1,520 4.3 -34.6°
